Probability
65 68 68 71 71 74 77 74 71 74 77 77 74 74 65 55 61 68 65 61 45 39 52 48 55 52 52 45 42 48 48 52 42 32 35 39 32 42 48 58 48 39 42
71 68 77 71 68 77 77 77 68 74 77 77 81 81 65 58 55 55 48 45 35 39 23 45 45 48 48 35 32 42 45 35 39 35 26 16 23 29 3 35 35 32 35
65 68 68 68 65 71 74 68 71 74 77 77 74 65 68 58 42 52 48 42 32 32 45 39 32 42 39 35 35 42 29 29 39 35 23 13 13 16 19 16 13 23 26
65 65 61 68 65 61 68 77 74 74 81 74 65 58 42 42 45 48 42 42 32 29 26 26 26 32 29 42 26 32 32 29 26 23 26 26 16 10 0 13 13 13 13
52 71 61 65 58 45 45 61 74 74 81 68 74 71 55 48 45 45 42 42 35 26 19 26 26 23 26 23 23 29 26 35 32 23 16 16 19 10 3 0 10 10 19
58 74 65 68 61 45 48 48 71 77 71 74 68 71 61 58 48 45 45 39 39 26 23 19 19 13 23 13 23 19 23 32 23 23 16 19 13 6 3 3 3 13 16
58 58 68 65 61 55 45 61 68 74 65 68 71 74 65 61 58 42 39 29 23 23 26 10 16 10 10 6 13 6 13 13 10 13 16 16 19 13 13 0 0 3 13
58 61 58 68 58 52 52 55 68 68 68 65 71 77 77 55 45 52 35 35 29 26 26 23 16 13 6 6 13 10 6 6 6 3 6 10 6 6 13 10 3 0 3
55 58 61 55 52 55 55 61 65 68 68 65 71 68 65 55 68 55 42 35 42 16 19 23 16 10 10 6 13 13 6 3 6 6 6 6 13 3 6 10 6 0 0
55 58 55 55 52 58 68 61 61 68 71 68 61 48 68 71 68 42 48 42 35 23 16 13 16 13 6 10 10 16 3 3 6 3 3 10 6 3 10 3 6 6 3
52 55 55 52 48 42 52 58 58 65 74 71 61 61 61 58 61 45 35 39 29 23 16 16 16 16 16 13 13 10 3 3 6 3 3 3 3 3 3 3 3 6 6
61 58 45 48 45 32 45 55 45 61 68 68 68 58 58 52 52 39 32 35 35 23 19 19 16 16 13 16 6 6 3 0 0 0 0 0 0 0 6 6 6 10 6
58 61 55 52 48 42 48 48 42 58 48 48 52 55 48 48 52 48 39 39 29 26 19 16 16 10 10 10 13 3 3 3 3 3 6 3 6 6 6 10 6 6 3
58 68 71 61 58 61 55 45 39 39 45 42 42 48 52 45 48 55 48 39 29 26 26 23 6 6 6 10 10 6 3 3 3 3 3 6 6 10 6 6 10 6 6
68 74 77 81 71 65 68 58 48 58 45 42 42 55 58 55 52 48 45 35 32 23 23 19 13 6 6 3 3 6 3 3 3 3 3 6 6 3 3 3 6 10 10
71 74 84 77 77 68 61 68 71 65 61 52 55 52 55 42 48 48 39 42 35 26 23 19 16 6 3 0 0 3 3 3 3 3 3 6 6 6 0 0 0 0 0
65 74 77 87 84 77 81 77 74 71 65 58 55 58 52 45 42 35 42 48 48 42 32 23 16 13 6 3 0 0 3 3 6 10 6 6 3 0 6 3 0 0 0
71 74 77 84 84 77 77 77 68 71 61 58 48 61 55 39 45 52 52 55 52 45 45 39 23 19 3 3 0 0 0 0 0 13 13 13 6 6 6 6 3 6 6
74 81 84 77 87 81 74 74 68 65 52 42 55 55 55 52 48 45 55 48 48 45 45 45 35 29 10 3 0 0 0 0 6 10 6 10 13 0 0 0 0 6 13
71 81 81 84 90 90 81 74 68 65 48 48 55 61 68 65 61 61 65 58 48 45 42 42 39 39 29 3 0 0 0 3 10 13 6 3 0 0 0 0 3 6 6
74 74 87 87 90 94 90 81 68 68 58 55 58 74 68 71 61 71 74 68 58 45 45 48 45 45 35 3 0 0 0 0 6 6 13 6 0 0 0 0 3 3 3
52 55 77 84 84 90 90 84 74 74 71 68 65 68 71 55 55 81 77 77 58 55 55 58 55 42 35 3 3 0 0 0 0 0 3 3 0 0 0 0 0 0 0
55 61 71 84 84 84 81 74 84 84 77 65 71 71 68 77 68 74 71 61 68 48 42 45 39 42 42 19 3 0 0 0 0 0 0 0 0 0 0 0 0 0 0
58 58 68 74 84 84 81 87 84 81 81 74 71 74 74 71 74 71 65 58 55 42 39 39 39 39 42 32 10 3 0 0 0 0 0 0 0 0 0 0 0 0 0
68 68 81 84 81 81 84 84 81 81 77 71 71 71 74 71 71 68 52 61 42 45 45 52 45 26 26 3 0 3 6 3 0 0 0 3 3 3 0 0 3 3 0
55 71 68 74 74 74 77 81 81 81 81 68 71 71 65 71 68 48 42 16 13 6 0 0 0 6 0 0 0 0 0 0 0 0 6 0 0 3 3 10 3 0 3
Height
5839 5840 5841 5841 5842 5843 5843 5844 5845 5846 5848 5849 5851 5853 5854 5856 5859 5860 5862 5863 5865 5867 5868 5870 5871 5873 5874 5875 5876 5877 5878 5878 5879 5879 5880 5880 5880 5880 5880 5880 5880 5880 5881
5837 5837 5838 5839 5839 5840 5841 5841 5843 5844 5845 5847 5849 5851 5852 5854 5857 5858 5860 5862 5863 5865 5866 5868 5870 5871 5872 5873 5874 5875 5876 5876 5877 5878 5878 5878 5879 5878 5878 5879 5879 5879 5879
5833 5835 5835 5836 5837 5837 5838 5839 5841 5842 5843 5845 5847 5849 5851 5853 5855 5856 5858 5860 5861 5863 5865 5866 5868 5869 5871 5872 5873 5874 5874 5875 5876 5876 5877 5877 5877 5877 5877 5877 5877 5877 5877
5830 5831 5832 5833 5834 5835 5836 5837 5838 5839 5841 5843 5845 5847 5849 5851 5853 5854 5856 5858 5859 5861 5863 5865 5866 5868 5869 5870 5871 5872 5873 5874 5874 5874 5875 5875 5875 5876 5876 5876 5875 5875 5875
5827 5828 5829 5830 5831 5832 5833 5834 5836 5837 5839 5841 5843 5845 5847 5849 5851 5852 5854 5856 5858 5859 5861 5863 5865 5866 5867 5868 5869 5870 5871 5872 5873 5873 5873 5874 5874 5874 5874 5874 5874 5874 5873
5825 5826 5826 5827 5828 5829 5830 5832 5833 5835 5836 5838 5841 5843 5845 5848 5849 5851 5852 5854 5856 5858 5860 5861 5863 5865 5866 5867 5868 5869 5870 5871 5871 5872 5872 5872 5873 5873 5873 5873 5872 5872 5871
5822 5823 5824 5825 5825 5827 5828 5829 5831 5833 5834 5836 5838 5841 5843 5846 5847 5849 5851 5853 5855 5857 5858 5860 5862 5863 5865 5866 5867 5868 5869 5869 5870 5870 5871 5871 5871 5871 5871 5871 5871 5870 5870
5819 5821 5821 5822 5823 5824 5826 5827 5829 5831 5833 5835 5837 5839 5841 5843 5845 5847 5849 5852 5853 5855 5857 5859 5861 5862 5864 5865 5866 5867 5868 5868 5869 5869 5869 5870 5870 5869 5869 5869 5869 5868 5868
5816 5817 5819 5820 5821 5822 5824 5825 5827 5829 5831 5833 5835 5837 5839 5842 5844 5846 5848 5850 5852 5854 5856 5858 5859 5861 5862 5863 5865 5866 5866 5867 5867 5868 5868 5868 5868 5867 5867 5867 5867 5867 5866
5813 5814 5816 5817 5818 5820 5822 5823 5825 5828 5829 5831 5833 5835 5838 5840 5842 5844 5846 5848 5850 5852 5855 5857 5858 5859 5861 5862 5863 5864 5865 5866 5866 5866 5866 5866 5866 5866 5865 5865 5865 5865 5864
5809 5811 5813 5815 5816 5818 5820 5822 5824 5826 5828 5830 5832 5834 5836 5838 5840 5842 5844 5846 5848 5851 5853 5855 5857 5858 5860 5861 5862 5863 5863 5864 5864 5864 5864 5864 5864 5864 5864 5863 5863 5863 5862
5807 5809 5811 5813 5814 5816 5819 5820 5822 5824 5826 5828 5830 5832 5834 5836 5838 5840 5842 5844 5846 5849 5851 5853 5855 5856 5858 5859 5860 5861 5861 5862 5862 5862 5862 5862 5862 5862 5862 5861 5861 5860 5860
5805 5807 5810 5811 5813 5815 5817 5819 5821 5823 5825 5827 5829 5830 5832 5834 5836 5838 5840 5842 5844 5847 5849 5851 5853 5854 5855 5856 5857 5858 5859 5860 5860 5860 5860 5860 5860 5860 5859 5859 5858 5858 5857
5804 5807 5808 5810 5812 5814 5816 5818 5820 5822 5824 5825 5827 5829 5831 5832 5834 5836 5838 5840 5843 5845 5846 5848 5850 5851 5852 5854 5855 5856 5856 5857 5857 5857 5857 5857 5857 5857 5856 5856 5855 5855 5854
5803 5804 5807 5809 5811 5813 5815 5817 5818 5820 5822 5824 5826 5827 5829 5831 5833 5835 5836 5838 5840 5842 5844 5845 5847 5848 5850 5851 5852 5853 5853 5854 5854 5854 5854 5854 5854 5853 5853 5852 5852 5851 5850
5801 5803 5805 5807 5809 5811 5813 5815 5817 5819 5820 5822 5824 5826 5827 5829 5831 5833 5834 5836 5838 5840 5841 5843 5844 5846 5847 5848 5849 5850 5850 5851 5851 5851 5851 5851 5850 5850 5849 5848 5848 5847 5845
5799 5801 5803 5805 5807 5809 5811 5813 5815 5817 5818 5820 5822 5824 5825 5827 5829 5831 5832 5834 5836 5837 5839 5840 5841 5843 5844 5845 5845 5846 5846 5847 5847 5847 5847 5846 5846 5845 5845 5844 5843 5842 5840
5796 5798 5800 5802 5804 5807 5809 5811 5813 5815 5816 5818 5820 5821 5823 5825 5826 5828 5830 5831 5833 5834 5835 5837 5838 5839 5840 5840 5841 5842 5842 5842 5842 5842 5842 5842 5841 5841 5840 5838 5837 5836 5834
5792 5794 5797 5799 5801 5803 5806 5808 5810 5812 5814 5816 5817 5819 5821 5822 5824 5825 5827 5828 5829 5831 5832 5833 5834 5835 5836 5836 5836 5837 5837 5837 5837 5837 5837 5836 5836 5835 5834 5833 5831 5830 5828
5788 5790 5793 5795 5798 5800 5803 5805 5807 5810 5811 5813 5814 5816 5818 5819 5821 5822 5823 5825 5826 5827 5828 5829 5830 5831 5831 5832 5832 5832 5832 5832 5832 5832 5831 5830 5830 5829 5827 5826 5824 5823 5821
5783 5785 5788 5791 5794 5797 5799 5801 5804 5806 5808 5809 5811 5813 5815 5816 5817 5819 5820 5821 5822 5823 5824 5825 5826 5826 5827 5827 5827 5827 5827 5827 5826 5826 5825 5824 5823 5822 5820 5818 5817 5815 5814
5779 5781 5784 5787 5790 5792 5795 5797 5800 5802 5803 5806 5807 5809 5811 5812 5814 5815 5816 5817 5818 5819 5820 5820 5821 5822 5822 5822 5821 5821 5821 5820 5820 5819 5818 5817 5815 5814 5812 5810 5809 5807 5805
5774 5776 5779 5782 5785 5788 5790 5793 5795 5797 5799 5801 5803 5805 5806 5808 5809 5811 5812 5813 5813 5814 5815 5815 5816 5816 5816 5816 5816 5815 5814 5813 5812 5811 5810 5809 5807 5805 5804 5802 5800 5797 5795
5770 5772 5775 5777 5780 5782 5785 5787 5790 5792 5794 5796 5798 5800 5801 5803 5804 5805 5806 5807 5808 5808 5809 5809 5809 5809 5809 5809 5809 5808 5807 5806 5804 5803 5802 5800 5798 5797 5795 5793 5790 5787 5785
5765 5767 5770 5772 5775 5777 5779 5782 5784 5786 5788 5790 5792 5794 5795 5797 5798 5799 5800 5801 5801 5802 5802 5802 5802 5802 5802 5802 5801 5800 5799 5798 5796 5795 5793 5792 5790 5787 5785 5782 5779 5777 5774
5760 5762 5764 5767 5769 5771 5774 5776 5778 5780 5782 5784 5785 5787 5789 5790 5791 5792 5793 5793 5794 5794 5794 5794 5794 5794 5794 5793 5793 5791 5790 5789 5787 5786 5784 5782 5779 5777 5774 5771 5769 5766 5763
Wind_Speed
13 13 12 12 12 12 13 13 13 13 12 13 14 14 14 14 13 12 12 12 12 12 11 11 10 10 9 9 9 9 9 8 7 7 7 8 8 9 9 9 9 9 10
14 13 13 13 13 13 13 13 13 12 12 11 13 14 14 13 12 12 11 12 12 12 11 11 10 9 8 8 8 8 8 8 8 7 7 8 8 8 8 8 9 9 10
14 13 13 13 13 13 13 13 13 13 13 13 12 12 12 12 12 11 11 11 11 11 10 10 10 9 8 8 8 7 7 7 7 7 8 8 7 8 8 8 8 9 9
14 13 13 13 12 13 13 13 13 13 13 14 12 11 11 11 12 11 11 11 11 11 10 10 9 9 9 8 8 8 7 7 7 7 7 7 7 7 8 8 8 9 9
14 13 13 13 12 12 13 13 13 13 13 13 12 12 11 11 10 10 9 10 11 11 10 9 8 8 7 7 7 7 7 7 7 6 6 7 7 7 8 8 8 9 9
13 13 13 12 11 12 12 12 12 13 13 12 12 12 11 11 10 10 10 9 10 10 9 9 8 7 6 6 6 6 6 6 5 6 6 7 7 7 8 8 8 9 9
12 12 11 10 10 11 11 11 12 12 12 11 11 11 11 11 10 10 10 9 9 9 9 9 8 7 6 6 5 5 6 6 5 6 6 7 8 8 9 9 9 10 10
12 11 11 10 10 10 11 11 12 12 12 11 11 10 10 10 10 9 10 10 9 9 9 8 8 7 7 6 5 5 6 5 6 6 7 7 8 9 9 9 10 10 10
12 12 11 10 10 10 10 11 12 12 12 11 11 10 10 10 10 9 10 10 10 9 9 9 8 7 6 6 6 5 6 6 6 7 7 8 9 8 8 9 9 9 9
13 13 11 11 10 10 11 11 11 11 11 11 11 11 10 10 10 10 10 10 10 10 9 8 7 7 7 7 6 6 6 6 7 7 8 8 8 8 8 8 9 9 9
12 11 11 10 10 10 10 11 11 11 11 10 10 11 11 11 10 10 10 10 11 10 10 9 8 8 8 8 7 7 7 7 7 8 9 9 9 8 9 9 10 10 10
11 11 11 11 10 11 11 11 10 10 10 10 10 10 11 11 11 11 11 11 11 11 10 10 9 8 8 8 8 8 7 8 8 9 9 9 9 9 10 10 11 11 12
11 10 11 11 11 11 11 11 10 10 10 10 9 9 9 10 11 11 11 11 12 11 11 10 10 9 9 9 9 8 8 8 9 9 10 10 10 10 11 12 12 13 13
12 12 11 11 11 11 11 11 11 10 10 9 9 9 9 10 10 10 11 11 11 11 11 11 11 10 10 10 10 10 10 10 10 11 11 11 12 12 12 13 13 14 14
14 13 13 12 11 11 11 11 11 10 10 10 10 10 10 10 10 11 10 10 11 11 10 11 11 10 11 11 11 11 11 11 11 11 11 12 13 13 14 14 15 16 16
15 14 14 13 13 12 11 11 11 10 10 11 10 10 10 10 11 11 11 11 11 10 10 11 11 11 11 11 12 12 12 12 12 12 13 14 15 15 15 16 17 18 18
17 16 15 14 14 13 13 12 12 11 11 11 11 11 11 11 11 11 11 12 12 11 11 11 11 12 13 13 14 14 14 14 15 15 16 16 16 17 18 19 19 20 21
18 17 16 16 16 15 15 13 12 12 12 12 12 12 12 12 12 13 13 13 12 12 13 13 13 14 15 16 16 16 16 17 18 18 18 18 19 19 20 21 22 23 24
19 19 18 18 18 17 16 15 14 13 12 12 12 12 12 13 14 14 14 14 13 13 13 14 14 15 15 16 17 17 18 19 19 20 20 21 21 21 22 23 24 25 25
21 20 19 19 18 18 18 17 16 15 14 14 14 14 14 14 14 15 15 14 14 14 15 15 16 16 16 16 17 18 19 20 20 21 22 22 23 24 25 26 26 27 27
21 20 21 20 19 19 19 19 18 17 17 16 16 16 16 16 15 15 15 15 15 16 16 16 16 17 17 18 19 20 20 21 22 23 24 25 25 26 27 28 28 29 29
21 21 21 21 21 21 20 20 20 19 19 18 18 18 17 17 17 17 17 17 17 17 18 18 18 19 19 20 21 21 22 23 24 25 26 27 28 29 29 30 31 32 33
21 20 20 21 22 22 22 22 22 21 20 20 19 19 19 19 19 19 19 19 19 19 20 20 21 21 22 22 23 24 25 25 26 27 28 29 30 30 32 33 34 35 36
21 20 21 21 22 22 23 23 23 23 22 22 21 21 20 20 20 21 21 21 21 22 22 23 23 24 24 24 25 26 27 28 28 29 30 30 31 33 34 35 36 37 38
22 22 22 22 23 23 23 24 24 24 23 23 23 23 22 22 22 22 23 23 23 24 25 25 26 26 26 26 27 28 29 30 31 31 31 32 34 35 36 37 37 38 39
22 22 22 22 23 23 23 24 24 24 24 24 24 24 23 23 24 25 25 25 26 26 27 27 27 28 28 29 30 31 31 32 33 34 35 36 36 37 38 39 39 40 41
Wind_Direction
267 266 267 268 265 265 261 259 253 247 246 238 233 234 234 233 234 233 232 233 236 237 237 235 238 240 246 251 252 252 256 263 269 273 275 281 284 283 281 281 284 284 284
264 265 265 266 265 263 260 258 247 247 247 240 236 234 232 232 232 232 230 231 234 234 231 232 236 238 244 248 252 251 254 259 267 271 275 282 285 285 286 287 289 289 288
264 264 265 267 263 261 259 254 246 246 243 241 240 236 233 230 231 233 231 227 230 229 229 229 233 237 244 249 248 249 256 259 267 273 275 276 280 286 289 291 293 298 296
263 265 264 264 264 260 256 251 246 243 241 239 237 233 232 230 229 232 230 227 227 225 225 227 231 237 242 245 246 251 255 260 269 274 276 276 279 287 289 293 297 301 302
265 264 261 260 260 256 250 244 244 240 238 237 235 228 227 227 227 228 228 227 223 218 219 222 228 233 234 236 243 249 253 260 267 274 278 283 285 289 294 297 301 305 307
263 261 259 259 256 250 244 239 239 239 236 233 227 225 225 228 227 227 228 226 219 217 217 216 220 225 226 230 238 245 251 257 264 272 280 286 293 298 299 301 304 307 309
260 260 259 255 252 245 237 236 235 235 232 228 224 224 227 229 231 229 221 219 215 213 212 211 215 218 223 231 239 243 250 256 264 275 283 288 291 295 297 299 301 303 304
257 258 257 252 248 241 233 231 233 232 229 228 223 224 229 228 224 221 215 217 215 211 212 211 213 218 225 232 236 242 250 257 268 281 286 290 293 297 298 299 301 302 303
256 251 252 248 243 237 228 227 227 227 226 223 221 222 222 217 217 217 214 216 214 212 212 210 213 219 225 233 239 249 255 261 274 283 289 294 296 299 301 300 301 304 306
253 245 243 244 241 234 226 223 222 223 220 218 222 220 217 217 219 221 218 218 213 210 212 211 217 223 230 238 248 258 262 264 274 282 287 292 292 293 298 300 303 306 305
253 237 235 239 236 228 219 218 218 215 213 216 219 219 217 218 222 220 217 216 214 214 211 216 223 231 237 245 253 260 267 270 278 284 288 289 288 293 297 300 301 301 303
244 231 234 235 232 224 219 214 212 211 213 217 221 222 221 219 221 219 218 217 213 212 217 221 226 234 244 251 256 264 269 273 279 284 288 289 290 292 294 295 295 298 300
249 238 235 234 231 224 219 213 210 213 216 218 220 219 217 218 219 217 215 213 214 218 223 226 232 240 251 256 258 265 270 274 277 281 283 286 289 290 292 294 295 295 297
247 241 234 230 225 219 217 215 216 216 217 217 218 218 218 221 222 217 213 215 218 222 226 231 238 246 253 257 259 263 268 273 276 280 280 283 287 291 293 293 294 295 295
248 242 237 234 230 225 223 223 221 223 222 221 220 220 222 224 223 220 220 222 223 227 231 236 242 251 257 259 262 265 268 272 277 279 281 285 289 291 292 292 293 294 295
247 241 238 237 234 231 229 227 226 225 223 222 220 221 222 224 223 222 224 224 228 234 240 244 248 253 257 260 263 265 268 271 274 278 281 284 287 288 291 292 292 293 294
244 242 236 235 234 232 231 230 229 228 228 226 224 225 227 227 224 224 228 233 237 241 246 250 253 257 260 261 263 267 269 272 274 278 282 283 285 287 288 289 291 292 292
244 242 237 234 234 233 231 230 230 230 232 231 229 226 227 227 228 231 235 238 242 246 250 253 257 261 263 265 265 267 270 272 275 277 280 282 284 286 286 288 290 293 293
242 239 236 236 233 229 229 231 232 232 231 231 230 230 231 231 233 236 240 243 247 251 255 258 261 263 265 268 269 270 272 274 277 278 279 281 284 286 288 288 289 292 293
240 239 236 236 232 229 231 234 235 234 232 233 235 234 236 237 238 239 243 247 251 254 258 262 263 266 269 272 274 275 276 277 279 281 282 283 285 287 288 289 290 291 293
240 238 236 234 234 233 234 235 236 236 236 237 239 239 242 242 244 245 249 252 254 257 261 264 266 269 271 273 276 278 277 278 280 282 283 284 285 286 287 289 290 291 291
238 235 234 234 235 236 237 237 238 238 239 240 242 242 245 246 249 251 253 255 258 260 262 265 267 270 272 274 276 279 281 282 282 284 285 285 285 286 287 288 290 291 291
235 233 232 235 237 238 239 240 242 241 242 243 244 245 248 250 251 253 256 259 262 264 267 268 269 270 273 276 279 281 283 284 284 285 286 286 286 288 288 288 290 291 291
236 235 237 238 240 241 241 240 242 244 244 244 245 247 249 253 255 258 260 262 264 268 269 270 272 274 275 277 280 282 284 285 285 285 286 287 288 289 290 290 290 290 291
236 237 239 241 242 242 242 242 243 245 246 244 245 247 250 253 256 259 261 264 266 269 270 272 275 277 278 279 280 282 283 284 284 285 287 288 290 290 290 291 291 291 291
238 238 240 241 241 243 244 244 245 246 246 246 247 249 253 257 260 263 265 267 269 270 271 273 276 278 279 279 281 282 283 284 285 287 287 288 289 290 291 291 291 292 291